sat.trackr.live / text

‹ back to catalog

YAOGAN-36 04B

NORAD 54748 · 2022-171C

PAYLOAD ACTIVE UNKNOWN

§ Identity

Operator
Country
PRC
Launch date
2022-12-14
Launch site
XICLF
Launch vehicle
Mass (kg)
RCS (m²)

External: N2YO · Heavens-Above · Gunter

§ Orbital elements

Epoch: 2026-05-24T22:48:43.348608Z

Period
94.54 min
Inclination
35.0060°
Eccentricity
0.0003272
Mean motion
15.23139608 rev/d
Perigee alt
494.1 km
Apogee alt
498.6 km
Semi-major
6,874.5 km
B*
4.0824e-4
RAAN
341.0621°
Arg perigee
320.7007°
Mean anomaly
39.3470°
Rev number
19,184

§ Raw data

YAOGAN-36 04B1 54748U 22171C   26144.95050172  .00009852  00000+0  40824-3 0  99912 54748  35.0060 341.0621 0003272 320.7007  39.3470 15.23139608191841

JSON: /api/v1/satellites/54748 · /tle

For live sub-satellite position, see the globe view (requires WebGL).

§ Visibility from observer

Set your observer location to see the next 7 days of passes ≥ 10°. The values pass through the URL so the page stays shareable.

No JS? Fill the form by hand. The geolocation button needs JavaScript.